TimeCST,TemperatureF,Dew PointF,Humidity,Sea Level PressureIn,VisibilityMPH,Wind Direction,Wind SpeedMPH,Gust SpeedMPH,PrecipitationIn,Events,Conditions,WindDirDegrees,DateUTC
12:56 AM,52.0,50.0,93,30.23,10.0,ESE,5.8,-,N/A,,Scattered Clouds,120,2012-12-01 06:56:00
1:56 AM,54.0,53.1,97,30.22,6.0,ESE,6.9,-,N/A,,Scattered Clouds,110,2012-12-01 07:56:00
2:56 AM,54.0,53.1,97,30.22,7.0,East,6.9,-,N/A,,Scattered Clouds,100,2012-12-01 08:56:00
3:43 AM,55.4,53.6,94,30.22,3.0,Calm,Calm,-,N/A,,Scattered Clouds,0,2012-12-01 09:43:00
3:56 AM,55.0,53.1,93,30.21,3.0,Calm,Calm,-,N/A,,Scattered Clouds,0,2012-12-01 09:56:00
4:21 AM,51.8,50.0,94,30.21,1.0,Calm,Calm,-,N/A,,Scattered Clouds,0,2012-12-01 10:21:00
4:34 AM,51.8,50.0,94,30.22,0.5,Calm,Calm,-,N/A,Fog,Fog,0,2012-12-01 10:34:00
4:56 AM,52.0,51.1,97,30.22,0.5,Calm,Calm,-,N/A,Fog,Fog,0,2012-12-01 10:56:00
5:48 AM,51.8,48.2,88,30.24,0.5,Calm,Calm,-,N/A,Fog,Fog,0,2012-12-01 11:48:00
5:56 AM,51.1,48.9,92,30.24,0.5,Calm,Calm,-,N/A,Fog,Fog,0,2012-12-01 11:56:00
6:16 AM,51.8,50.0,94,30.25,1.0,Calm,Calm,-,N/A,,Mostly Cloudy,0,2012-12-01 12:16:00
6:39 AM,51.8,50.0,94,30.25,0.8,ENE,4.6,-,N/A,,Scattered Clouds,70,2012-12-01 12:39:00
6:56 AM,52.0,51.1,97,30.26,0.8,East,3.5,-,N/A,,Scattered Clouds,80,2012-12-01 12:56:00
7:06 AM,53.6,51.8,94,30.26,2.0,ENE,3.5,-,N/A,,Scattered Clouds,60,2012-12-01 13:06:00
7:15 AM,53.6,51.8,94,30.26,4.0,Calm,Calm,-,N/A,,Partly Cloudy,0,2012-12-01 13:15:00
7:56 AM,57.0,55.9,96,30.27,6.0,East,4.6,-,N/A,,Partly Cloudy,80,2012-12-01 13:56:00
8:56 AM,64.0,55.9,75,30.28,10.0,ESE,6.9,-,N/A,,Partly Cloudy,120,2012-12-01 14:56:00
9:56 AM,69.1,57.0,65,30.29,10.0,ESE,6.9,-,N/A,,Partly Cloudy,110,2012-12-01 15:56:00
10:56 AM,72.0,57.0,59,30.28,10.0,SSE,12.7,-,N/A,,Scattered Clouds,150,2012-12-01 16:56:00
11:56 AM,73.0,57.0,57,30.26,10.0,SSE,12.7,-,N/A,,Mostly Cloudy,150,2012-12-01 17:56:00
12:56 PM,73.9,55.9,53,30.24,10.0,SE,11.5,-,N/A,,Scattered Clouds,130,2012-12-01 18:56:00
1:56 PM,73.9,55.9,53,30.22,10.0,SE,6.9,-,N/A,,Scattered Clouds,140,2012-12-01 19:56:00
2:56 PM,73.9,55.9,53,30.22,10.0,SSE,6.9,-,N/A,,Scattered Clouds,150,2012-12-01 20:56:00
3:56 PM,71.1,55.0,57,30.22,10.0,SSE,9.2,-,N/A,,Partly Cloudy,150,2012-12-01 21:56:00
4:56 PM,66.0,55.9,70,30.22,10.0,SSE,6.9,-,N/A,,Scattered Clouds,160,2012-12-01 22:56:00
5:56 PM,64.0,55.9,75,30.24,10.0,SSE,3.5,-,N/A,,Partly Cloudy,150,2012-12-01 23:56:00
6:56 PM,60.1,55.9,86,30.25,10.0,SE,5.8,-,N/A,,Clear,130,2012-12-02 00:56:00
7:56 PM,60.1,57.9,93,30.25,10.0,SE,5.8,-,N/A,,Partly Cloudy,130,2012-12-02 01:56:00
8:56 PM,59.0,57.9,96,30.25,7.0,SE,6.9,-,N/A,,Scattered Clouds,140,2012-12-02 02:56:00
9:56 PM,59.0,57.0,93,30.25,6.0,SE,4.6,-,N/A,,Scattered Clouds,140,2012-12-02 03:56:00
10:56 PM,57.9,55.9,93,30.24,3.0,SE,3.5,-,N/A,,Scattered Clouds,130,2012-12-02 04:56:00
11:56 PM,55.9,54.0,93,30.25,3.0,ESE,3.5,-,N/A,,Scattered Clouds,110,2012-12-02 05:56:00